• Join FlightAware (Why Join?)
  • Login
  • US Flag GB Flag 
08:17 EDT


 

Airport Tracker/Info


-or-


 

Live Flight TrackerFlight Track Log ✈ SKW5550 ✈ 04-Jul-2013 ✈ KCOD - KDEN

Flight Track Log - Related Links

Times and Time Zones

All times are in EDT time to prevent confusion due to time zone crossing. See the SKW5550 flight status page for this flight to view local times or setup timezone preferences in your user account.

Time Position Orientation Groundspeed Altitude Reporting Facility
EDT Latitude Longitude Course Direction KTS MPH feet Rate Location/Type
08:58 44.5397 -108.9908 159° South 156 180 6,500  Level Salt Lake Center
08:59 44.5311 -108.9203 100° East 180 207 8,700 1,980 Climbing Salt Lake Center
09:00 44.3784 -108.8245 154° Southeast  Level FlightAware Approximate
09:00 44.4714 -108.8800 154° Southeast 223 257 10,500  Level Salt Lake Center
09:01 44.2681 -108.7510 154° Southeast  Level FlightAware Approximate
09:01 44.3997 -108.8408 159° South 252 290 12,000  Level Salt Lake Center
09:02 44.1550 -108.6862 158° South  Level FlightAware Approximate
09:02 44.3217 -108.7947 157° South 279 321 13,700  Level Salt Lake Center
09:03 44.0413 -108.6239 159° South  Level FlightAware Approximate
09:03 44.2372 -108.7419 156° South 313 360 15,600  Level Salt Lake Center
09:04 44.1522 -108.6883 156° South 330 380 17,300 1,320 Climbing Salt Lake Center
09:05 44.0628 -108.6456 161° South 337 388 18,300 840 Climbing Salt Lake Center
09:06 43.9661 -108.5889 157° South 362 417 19,100 840 Climbing Salt Lake Center
09:07 43.8447 -108.5200 158° South 387 445 20,000 840 Climbing Salt Lake Center
09:08 43.7408 -108.4617 158° South 399 459 20,800 780 Climbing Salt Lake Center
09:09 43.6347 -108.4008 157° South 409 471 21,600 840 Climbing Salt Lake Center
09:10 43.5281 -108.3419 158° South 412 474 22,500 780 Climbing Salt Lake Center
09:11 43.4258 -108.2650 151° Southeast 419 482 23,200 780 Climbing Salt Lake Center
09:12 43.3311 -108.1608 141° Southeast 433 498 24,100 840 Climbing Salt Lake Center
09:13 43.2383 -108.0625 142° Southeast 428 493 24,900 780 Climbing Salt Lake Center
09:14 43.1439 -107.9633 143° Southeast 429 494 25,700 780 Climbing Salt Lake Center
09:15 43.0486 -107.8642 143° Southeast 431 496 26,500 720 Climbing Salt Lake Center
09:16 42.9536 -107.7639 142° Southeast 432 497 27,200 540 Climbing Salt Lake Center
09:17 42.8608 -107.6667 142° Southeast 434 499 27,700 540 Climbing Salt Lake Center
09:18 42.7506 -107.5519 143° Southeast 443 510 28,300 540 Climbing Salt Lake Center
09:19 42.6567 -107.4506 142° Southeast 447 514 28,800 480 Climbing Salt Lake Center
09:20 42.5617 -107.3500 142° Southeast 452 520 29,300 480 Climbing Salt Lake Center
09:21 42.4511 -107.2317 142° Southeast 453 521 29,800 480 Climbing Denver Center
09:22 42.3553 -107.1317 142° Southeast 454 522 30,300 540 Climbing Denver Center
09:23 42.2436 -107.0142 142° Southeast 455 524 30,900 300 Climbing Denver Center
09:24 42.1475 -106.9128 142° Southeast 457 526 31,000  Climbing Denver Center
09:25 42.0481 -106.8081 142° Southeast 469 540 31,000  Level Denver Center
09:26 41.9272 -106.6842 143° Southeast 484 557 31,000  Level Denver Center
09:27 41.8247 -106.5789 143° Southeast 485 558 31,000  Level Denver Center
09:28 41.7183 -106.4686 142° Southeast 471 542 31,000  Level Denver Center
09:29 41.6197 -106.3681 143° Southeast 466 536 31,000  Level Denver Center
09:30 41.5206 -106.2672 143° Southeast 469 540 31,000  Level Denver Center
09:31 41.4058 -106.1497 142° Southeast 469 540 31,000  Level Denver Center
09:32 41.3075 -106.0508 143° Southeast 466 536 31,000  Level Denver Center
09:33 41.1917 -105.9347 143° Southeast 467 537 31,000  Level Denver Center
09:34 41.1086 -105.8503 143° Southeast 470 541 31,000  Level Denver Center
09:35 40.9922 -105.7331 143° Southeast 470 541 31,000 -960 Level Denver Center
09:36 40.8853 -105.6289 144° Southeast 477 549 29,100 -2,400 Descending Denver Center
09:37 40.7814 -105.5247 143° Southeast 472 543 26,200 -2,760 Descending Denver Center
09:39 40.6867 -105.4294 143° Southeast 440 506 23,500 -2,520 Descending Denver Center
09:40 40.5811 -105.3264 143° Southeast 402 463 20,700 -2,160 Descending Denver Center
09:41 40.5017 -105.2478 143° Southeast 368 423 18,800 -1,920 Descending Denver Center
09:42 40.4586 -105.1186 114° Southeast 337 388 16,800 -1,920 Descending Denver Center
09:43 40.4164 -105.0158 118° Southeast 330 380 14,900 -1,740 Descending Denver Center
09:44 40.3603 -104.9228 128° Southeast 325 374 13,300 -1,680 Descending Denver Center
09:45 40.3006 -104.8269 129° Southeast 316 364 11,500 -1,680 Descending Denver Center
09:46 40.2267 -104.7769 153° Southeast 305 351 10,000 -1,380 Descending Denver Center
09:47 40.1422 -104.7492 166° South 312 359 8,700 -1,320 Descending Denver Center